[[{"header":{"parameterUnit":"m.s-1","parameterCategory":1,"la1":30.2991,"la2":30.254,"lo1":-89.0895,"lo2":-89.0444,"dy":0.0017,"dx":0.0017,"nx":28,"ny":28,"refTime":"2024-09-27T03:00:00:Z","depth":0,"parameterNumber":2,"parameterNumberName":"U-component_of_WINDS"},"data":[0,0,0,0,0,0,0,0,0,0,0,0,0,0,0,0,0,0,0,0,0,0,0,0,0,0,0,0,0,0,0,0,0,0,0,0,0,0,0,0,0,0,0,0,0,0,0,0,0,0,0,0,0,0,0,0,0,0,7.2165,7.2166,0,7.2258,7.2259,7.226,7.2187,7.2184,7.2181,7.2178,7.2273,7.2278,7.2283,0,0,0,0,0,0,0,0,0,0,0,0,0,7.1925,7.193,7.2165,7.2166,7.2167,7.2257,7.2259,7.226,7.2188,7.2184,7.218,7.2176,7.2271,7.2277,7.2284,0,0,0,0,0,0,0,0,0,0,0,0,0,7.2025,7.1932,7.2165,7.2142,7.2141,7.2257,7.2259,7.226,7.2188,7.2184,7.2179,7.2175,7.2269,7.2277,7.2285,7.2428,0,0,7.231,7.2313,0,0,0,0,0,0,0,0,7.2019,7.2034,7.2144,7.2144,7.2143,7.2206,7.2209,7.2317,7.219,7.217,7.2178,7.2172,7.2254,7.2263,7.2291,7.2433,7.2437,7.231,7.2315,7.2319,7.2321,0,0,0,0,0,0,0,7.2012,7.2029,7.2201,7.2146,7.2145,7.2127,7.2136,7.2229,7.2237,7.2172,7.2167,7.2179,7.2253,7.2283,7.2293,7.2438,7.231,7.2317,7.2322,7.2325,7.2702,7.2707,0,0,0,0,0,0,7.2008,7.2024,7.2198,7.2204,7.2068,7.2135,7.2145,7.219,7.2236,7.2239,7.2182,7.2175,7.2272,7.2283,7.2296,7.2466,7.2319,7.2326,7.2331,7.2697,7.2703,7.2709,0,0,0,0,0,0,7.2003,7.2024,7.2195,7.2113,7.2133,7.2144,7.2196,7.2195,7.2225,7.2244,7.2245,7.2212,7.2268,7.2284,7.2396,7.2468,7.233,7.2337,7.2691,7.2699,7.2706,7.2809,0,0,0,0,0,0,7.1996,7.2023,7.2077,7.2115,7.2138,7.2294,7.22,7.22,7.2239,7.223,7.2272,7.2275,7.2266,7.2384,7.2404,7.2477,7.2344,7.2685,7.2695,7.2704,7.2799,7.2819,7.2836,0,0,0,0,0,7.1988,7.2102,7.208,7.2102,7.2206,7.2298,7.2311,7.2299,7.2245,7.23,7.2313,7.2273,7.2458,7.2396,7.2418,7.2495,7.268,7.2692,7.2703,7.279,7.2815,7.2836,0,0,0,0,0,0,7.2073,7.2107,7.2083,7.2213,7.2253,7.2285,7.2354,7.2325,7.2382,7.2371,7.2353,7.2363,7.248,7.2499,7.243,7.2636,7.256,7.2577,7.2619,7.2643,7.2661,7.2653,7.235,0,0,0,0,0,7.2107,7.2178,7.2204,7.2316,7.2338,7.2343,7.2382,7.237,7.2411,7.2427,7.2448,7.2489,7.2556,7.2601,7.2664,7.2802,7.281,7.2865,7.2884,7.2899,7.2913,7.2987,7.3012,7.2747,7.2747,7.2747,0,0,7.2177,7.2205,7.2251,7.2334,7.2364,7.2438,7.2358,7.244,7.2495,7.244,7.2546,7.2563,7.2608,7.2733,7.279,7.2752,7.2988,7.2914,7.2926,7.2932,7.3002,7.3027,7.3049,7.2755,7.2753,7.2752,0,0,7.2344,7.2372,7.2468,7.25,7.2546,7.2549,7.2572,7.261,7.2619,7.2726,7.2686,7.2751,7.2867,7.2901,7.2933,7.3114,7.3079,7.3135,7.3231,7.3304,7.3325,7.3343,7.3406,7.3429,7.3149,7.3149,7.3149,0,7.2425,7.2536,7.2521,7.2607,7.2644,7.2599,7.2696,7.2727,7.2792,7.2819,7.2776,7.2921,7.2948,7.3081,7.3125,7.3153,7.3179,7.3129,7.3323,7.3341,7.3358,7.3418,7.3442,7.3156,7.3155,7.3154,7.3154,0,7.2634,7.2711,7.2783,7.2847,7.2893,7.2984,7.2983,7.3032,7.3016,7.3023,7.3132,7.3163,7.3232,7.3263,7.3247,7.3393,7.3368,7.3325,7.3248,7.339,7.3446,7.3469,7.3165,7.3162,7.316,7.3159,0,0,7.2854,7.2909,7.2936,7.2964,7.3013,7.3072,7.3161,7.3228,7.327,7.3317,7.339,7.349,7.345,7.3487,7.3476,7.354,7.368,7.3488,7.3489,7.3521,7.3841,7.3872,7.3899,7.3658,7.3662,7.3666,7.3837,0,7.3022,7.3176,7.3167,7.3312,7.3383,7.3342,7.3419,7.3457,7.3467,7.3529,7.354,7.361,7.3553,7.3575,7.3636,7.365,7.3743,7.3637,7.3726,7.3729,7.3714,7.3929,7.3962,7.4121,7.3859,7.3863,7.3865,0,7.3237,7.3291,7.3444,7.3482,7.3511,7.3581,7.3642,7.3702,7.3744,7.3747,7.3789,7.3767,7.3857,7.378,7.3903,7.3831,7.3867,7.3879,7.3885,7.3891,7.3804,7.3939,7.4172,7.4196,7.39,7.3897,7.3895,0,7.3381,7.3493,7.3598,7.3624,7.3671,7.3721,7.3743,7.3781,7.3822,7.3875,7.3901,7.3965,7.3999,7.4049,7.4045,7.3989,7.417,7.4092,7.4174,7.4174,7.4212,7.4209,7.4453,7.4239,7.4238,7.4238,7.4237,0,7.3568,7.3663,7.3664,7.3728,7.3833,7.3822,7.3926,7.3943,7.3977,7.4044,7.4013,7.4076,7.4068,7.4132,7.413,7.4232,7.4248,7.4252,7.425,7.4254,7.4253,7.4275,7.4264,7.4244,7.4243,7.4242,7.424,0,7.3746,7.375,7.3863,7.3898,7.391,7.3985,7.4016,7.4077,7.4085,7.417,7.419,7.4201,7.4275,7.4277,7.4361,7.436,7.4484,7.447,7.4469,7.4466,7.4547,7.4539,7.4811,7.4846,7.4611,7.4614,7.4616,0,7.3864,7.3936,7.398,7.4023,7.4048,7.4118,7.4159,7.4151,7.4196,7.425,7.4305,7.4376,7.4432,7.4552,7.4568,7.4633,7.4619,7.4711,7.4629,7.463,7.4619,7.4614,7.462,7.4726,7.4728,7.4731,7.4732,0,7.4073,7.4072,7.4133,7.4196,7.4247,7.4296,7.4341,7.4378,7.4375,7.4427,7.4502,7.4546,7.4633,7.4703,7.4766,7.4788,7.476,7.4758,7.478,7.4784,7.478,7.4781,7.4511,7.4752,7.475,7.4748,7.4747,7.4746,7.4224,7.4286,7.4326,7.4396,7.4429,7.4472,7.4531,7.4547,7.4609,7.4679,7.4671,7.4754,7.4795,7.4877,7.4905,7.497,7.4938,7.497,7.4978,7.4985,7.4993,7.4771,7.4981,7.4981,7.498,7.498,7.498,0,7.443,7.4454,7.4518,7.4583,7.4638,7.4607,7.4656,7.4703,7.4777,7.4818,7.4874,7.496,7.5029,7.5051,7.5117,7.5165,7.5154,7.5183,7.5178,7.5184,7.5019,7.4992,7.5191,7.5191,7.5191,7.5191,7.5191,7.5191,7.4543,7.4646,7.465,7.4769,7.4792,7.4874,7.4904,7.4944,7.4976,7.5074,7.5131,7.5145,7.5178,7.5247,7.5308,7.5313,7.5338,7.5372,7.5371,7.5217,7.5195,7.5175,7.515,7.5378,7.5378,7.553,7.5532,7.5533]},{"header":{"parameterUnit":"m.s-1","parameterCategory":1,"la1":30.2991,"la2":30.254,"lo1":-89.0895,"lo2":-89.0444,"dy":0.0017,"dx":0.0017,"nx":28,"ny":28,"refTime":"2024-09-27T03:00:00:Z","depth":0,"parameterNumber":3,"parameterNumberName":"V-component_of_WINDS"},"data":[0,0,0,0,0,0,0,0,0,0,0,0,0,0,0,0,0,0,0,0,0,0,0,0,0,0,0,0,0,0,0,0,0,0,0,0,0,0,0,0,0,0,0,0,0,0,0,0,0,0,0,0,0,0,0,0,0,0,2.098,2.0981,0,2.1078,2.1079,2.108,2.1109,2.1108,2.1107,2.1107,2.1207,2.121,2.1213,0,0,0,0,0,0,0,0,0,0,0,0,0,2.0817,2.082,2.098,2.0981,2.0982,2.1077,2.1079,2.108,2.1109,2.1108,2.1107,2.1107,2.1206,2.121,2.1213,0,0,0,0,0,0,0,0,0,0,0,0,0,2.0898,2.0821,2.098,2.1008,2.1011,2.1077,2.1079,2.108,2.1109,2.1108,2.1107,2.1106,2.1205,2.1209,2.1214,2.1258,0,0,2.1228,2.123,0,0,0,0,0,0,0,0,2.0894,2.0904,2.1003,2.1006,2.101,2.108,2.1058,2.114,2.1109,2.1072,2.1107,2.1106,2.1165,2.1173,2.1193,2.1263,2.1267,2.1229,2.1231,2.1233,2.1235,0,0,0,0,0,0,0,2.0888,2.09,2.1018,2.1004,2.1009,2.1015,2.1026,2.1074,2.1122,2.1075,2.1077,2.1088,2.1167,2.1189,2.1196,2.1269,2.1228,2.1233,2.1236,2.1237,2.1378,2.1379,0,0,0,0,0,0,2.0878,2.0895,2.1015,2.1021,2.0949,2.1019,2.1031,2.1058,2.1121,2.113,2.1089,2.1089,2.1181,2.119,2.1199,2.1255,2.1233,2.1238,2.1241,2.1377,2.1378,2.1379,0,0,0,0,0,0,2.0874,2.0888,2.1011,2.0959,2.0975,2.1023,2.1053,2.1061,2.1082,2.1132,2.114,2.1102,2.1181,2.1193,2.1243,2.1258,2.124,2.1244,2.1376,2.1378,2.1379,2.1366,0,0,0,0,0,0,2.0869,2.0887,2.0904,2.0959,2.0978,2.1054,2.1054,2.1063,2.109,2.1092,2.1146,2.1155,2.1181,2.1236,2.1248,2.1265,2.1248,2.1375,2.1377,2.1378,2.1365,2.1366,2.1368,0,0,0,0,0,2.0863,2.0897,2.0905,2.0919,2.1001,2.1055,2.1065,2.1095,2.1091,2.1109,2.1141,2.1153,2.1255,2.1241,2.1254,2.1273,2.1374,2.1376,2.1378,2.1364,2.1366,2.1368,0,0,0,0,0,0,2.0843,2.0905,2.0914,2.0967,2.1005,2.1059,2.1083,2.1096,2.1136,2.1136,2.1171,2.1183,2.1231,2.1257,2.124,2.1318,2.1315,2.132,2.13,2.1302,2.1303,2.1296,2.1252,0,0,0,0,0,2.0844,2.0883,2.0935,2.0976,2.0995,2.1035,2.106,2.1079,2.112,2.1137,2.1172,2.1212,2.1252,2.1279,2.1319,2.1369,2.1381,2.1388,2.139,2.139,2.1394,2.1421,2.1425,2.1386,2.1386,2.1386,0,0,2.0848,2.0886,2.0909,2.0973,2.1005,2.1043,2.1049,2.109,2.1119,2.1143,2.1192,2.122,2.1266,2.1316,2.134,2.1339,2.1408,2.1393,2.1393,2.1397,2.1424,2.1428,2.1431,2.1388,2.1387,2.1387,0,0,2.0874,2.0907,2.0945,2.0976,2.1025,2.1051,2.106,2.1113,2.1131,2.1182,2.12,2.1235,2.1305,2.1337,2.1362,2.1399,2.1411,2.1411,2.1418,2.1444,2.1447,2.145,2.1463,2.1467,2.1415,2.1415,2.1415,0,2.0872,2.0931,2.0962,2.1002,2.1029,2.1053,2.1091,2.112,2.1179,2.1197,2.1196,2.1283,2.1316,2.1373,2.1382,2.1402,2.1412,2.1405,2.1444,2.1448,2.1451,2.1463,2.1468,2.1414,2.1414,2.1414,2.1414,0,2.0926,2.0967,2.0991,2.1047,2.1077,2.1116,2.1152,2.1179,2.1195,2.1222,2.1272,2.1312,2.136,2.1376,2.1392,2.1435,2.1433,2.1438,2.1435,2.1454,2.1466,2.1471,2.1414,2.1414,2.1414,2.1414,0,0,2.0942,2.1014,2.1023,2.1048,2.1103,2.1135,2.1174,2.1221,2.1243,2.1282,2.1315,2.1373,2.1378,2.1406,2.1427,2.145,2.1475,2.1452,2.1453,2.1454,2.1524,2.1519,2.1524,2.1484,2.1485,2.1486,2.1519,0,2.0975,2.1046,2.1074,2.1132,2.1169,2.1192,2.1226,2.1263,2.1288,2.1324,2.1352,2.1392,2.1395,2.1412,2.1436,2.1467,2.149,2.1465,2.1514,2.1516,2.1502,2.1531,2.1527,2.1557,2.1524,2.1525,2.1526,0,2.1022,2.1062,2.1123,2.1172,2.1189,2.1219,2.1264,2.1298,2.1339,2.1356,2.1388,2.1407,2.1448,2.1442,2.1499,2.1482,2.1504,2.1522,2.1523,2.1529,2.1522,2.1536,2.1567,2.1571,2.1534,2.1533,2.1532,0,2.1027,2.1095,2.1141,2.1162,2.122,2.1241,2.1266,2.1307,2.1334,2.1373,2.139,2.1433,2.1457,2.149,2.152,2.1513,2.1574,2.1571,2.1588,2.1588,2.16,2.1599,2.1634,2.1615,2.1615,2.1615,2.1614,0,2.106,2.1096,2.1143,2.1171,2.1212,2.1244,2.1284,2.1311,2.1347,2.138,2.1402,2.1432,2.147,2.1505,2.1529,2.1572,2.1583,2.1597,2.1603,2.1595,2.1593,2.1609,2.1608,2.1616,2.1616,2.1615,2.1615,0,2.1072,2.1105,2.1156,2.1207,2.122,2.1248,2.1292,2.1319,2.1346,2.1387,2.1399,2.144,2.1482,2.1515,2.157,2.1586,2.1631,2.1638,2.1617,2.162,2.1635,2.1633,2.1682,2.169,2.1666,2.1666,2.1666,0,2.109,2.1119,2.1173,2.1196,2.1221,2.1259,2.1286,2.1318,2.1345,2.1394,2.1416,2.1459,2.1496,2.1562,2.1597,2.1639,2.1647,2.1661,2.1653,2.1644,2.1646,2.1644,2.1646,2.1662,2.1662,2.1662,2.1662,0,2.1119,2.1134,2.1172,2.1215,2.1246,2.1282,2.1318,2.1336,2.1375,2.1404,2.1447,2.1476,2.1531,2.1574,2.162,2.1645,2.166,2.1664,2.167,2.1662,2.1649,2.1655,2.1619,2.1663,2.1663,2.1663,2.1663,2.1662,2.1135,2.1161,2.1203,2.1244,2.1274,2.1307,2.1335,2.1365,2.1402,2.145,2.1466,2.1511,2.1551,2.1613,2.1639,2.1674,2.1675,2.1684,2.1686,2.1688,2.1687,2.1643,2.1682,2.1682,2.1683,2.1683,2.1683,0,2.1165,2.1192,2.123,2.1279,2.1311,2.1322,2.1362,2.1388,2.1427,2.1464,2.1499,2.1548,2.159,2.1627,2.167,2.1691,2.1698,2.1701,2.17,2.1705,2.1684,2.1674,2.1694,2.1694,2.1694,2.1694,2.1694,2.1694,2.1184,2.1228,2.1247,2.1307,2.1334,2.1378,2.14,2.143,2.1459,2.1513,2.1548,2.1572,2.1608,2.1654,2.1692,2.1702,2.1717,2.1717,2.1729,2.1708,2.1707,2.1705,2.1696,2.1721,2.1721,2.1747,2.1748,2.1748]}]]